Location: Tom
(33.0437°N, 96.9452°W)
Time: 13:27:01
(UTC-05:00)

Envisat - Visible Passes

Search period start: 26 March 2019 00:00
Search period end: 05 April 2019 00:00
Orbit: 764 x 766 km, 98.2° (Epoch: 25 March)

Date Brightness Start Highest point End Pass type
(mag) Time Alt. Az. Time Alt. Az. Time Alt. Az.
26 Mar 5.5 21:09:22 10° SW 21:13:14 22° W 21:17:08 10° NW visible
27 Mar 3.9 20:31:24 10° S 20:36:21 53° W 20:41:19 10° NNW visible
28 Mar 6.1 21:37:25 10° WSW 21:38:59 11° W 21:40:34 10° WNW visible
29 Mar 5.1 20:57:37 10° SSW 21:01:58 28° W 21:06:19 10° NW visible
30 Mar 3.4 20:20:05 10° S 20:25:07 70° WSW 20:30:12 10° NNW visible
31 Mar 5.9 21:24:46 10° SW 21:27:40 15° W 21:30:34 10° WNW visible
01 Apr 4.6 20:46:03 10° SSW 20:50:42 37° W 20:55:23 10° NNW visible
02 Apr 3.1 20:08:50 10° SSE 20:13:55 90° NNE 20:19:01 10° NNW visible
03 Apr 5.6 21:12:43 10° SW 21:16:22 20° W 21:20:02 10° NW visible
04 Apr 4.1 20:34:34 10° S 20:39:27 48° W 20:44:21 10° NNW visible
